CAPE
0 0 0 0 0 0 0 0 7 39 35 8 7 100 45 11 0 78 137 188 188 87 52 78 79 173 168 330 621 897 734 779 710 624 841 937 1101 1310 846 777 255 178 142 199
0 0 0 0 0 0 0 0 0 4 12 17 6 19 13 6 49 27 4 28 157 186 40 80 161 284 251 336 653 878 936 676 804 1127 1373 973 1054 950 804 792 406 218 168 324
0 0 0 0 0 0 0 0 0 11 7 18 10 17 33 7 21 18 56 0 43 222 88 121 169 307 207 365 613 843 826 440 654 1278 1375 1063 874 660 1138 809 391 208 161 295
0 0 0 0 0 0 0 0 7 13 4 5 1 40 80 1 30 10 0 21 61 241 202 163 213 336 294 128 384 751 738 630 908 1069 1255 1297 998 746 949 913 671 155 208 237
0 0 0 0 0 0 0 6 19 3 5 1 0 0 0 16 32 38 0 0 111 270 225 158 238 295 103 116 398 687 883 734 814 803 1222 1218 1228 934 928 632 469 452 86 307
0 0 0 0 0 0 0 5 3 1 2 7 0 0 0 8 7 0 0 0 160 229 245 219 292 277 51 16 176 712 948 611 884 936 634 1263 880 894 840 318 517 579 493 252
0 0 0 0 0 5 0 12 6 14 0 10 0 0 13 10 0 0 0 41 306 318 228 237 231 120 25 0 144 343 712 500 473 662 619 1006 977 629 790 589 220 386 343 357
0 0 0 0 0 0 2 14 0 49 1 1 45 37 0 0 0 0 0 37 380 284 254 222 190 87 2 0 33 124 491 383 340 374 523 911 882 705 669 249 177 322 421 385
0 0 0 0 0 0 0 0 0 0 2 3 1 12 19 3 0 0 0 228 517 341 268 238 188 70 32 31 87 259 465 451 287 244 674 502 1021 741 990 926 532 93 402 437
0 5 0 0 1 0 19 0 0 0 0 70 0 15 33 0 0 22 171 376 667 358 190 183 109 114 54 50 145 346 422 265 155 238 723 484 759 935 961 1194 932 202 361 525
0 193 26 38 5 0 0 0 0 3 0 19 41 19 74 61 200 530 329 591 573 259 65 130 56 128 2 0 0 259 331 104 184 126 277 379 759 950 705 623 531 76 123 308
0 35 199 14 0 0 3 0 7 12 78 0 8 92 102 110 39 225 382 457 220 113 69 32 27 103 0 0 1 117 395 7 16 49 163 187 1019 1082 891 754 758 192 295 410
7 57 324 281 228 60 26 0 8 149 298 190 2 58 90 12 19 40 532 261 128 117 57 36 12 39 0 0 0 0 130 0 0 0 14 101 1128 989 994 702 527 299 120 262
106 164 131 323 167 93 95 9 0 0 96 0 21 56 161 7 0 8 532 323 134 111 121 46 47 34 0 0 0 0 35 0 0 0 18 113 981 993 1075 773 751 793 481 128
382 64 229 71 130 65 1 0 0 0 4 1 58 23 39 107 65 72 553 353 118 78 77 136 138 42 0 0 0 0 0 0 0 0 15 146 565 1141 942 744 724 660 534 527
655 154 247 26 49 128 23 0 0 0 0 0 5 60 98 128 65 92 463 371 135 126 79 107 191 114 0 0 0 0 6 0 0 0 0 8 7 253 678 990 406 296 276 518
650 147 197 239 29 87 140 31 0 0 0 0 26 111 75 36 36 133 580 446 437 281 192 158 240 177 0 0 2 19 43 0 0 0 0 0 2 22 644 522 416 314 689 844
299 307 250 274 269 149 17 37 0 4 1 0 4 67 61 57 50 0 138 505 424 459 352 235 326 392 66 0 0 22 30 0 0 0 0 0 0 0 140 279 571 662 627 716
120 239 214 392 239 34 0 1 23 62 71 16 0 0 0 1 10 77 51 51 548 645 621 431 461 631 168 5 0 4 13 0 0 0 0 0 0 1 37 316 658 912 1055 761
100 326 482 334 303 258 90 0 0 10 18 72 53 76 72 8 1 7 139 52 569 547 700 632 614 590 272 167 44 58 32 0 0 0 0 0 0 8 138 710 936 1008 1210 942
111 218 311 248 676 166 56 21 47 0 0 144 111 201 271 174 111 862 680 364 805 654 735 892 671 594 410 261 137 100 30 47 0 0 0 0 0 44 417 1090 886 1060 930 546
206 175 396 447 345 170 16 42 133 505 1379 650 277 249 276 243 347 393 387 301 718 609 584 848 750 783 662 336 200 150 129 137 1 0 0 0 89 0 346 890 706 642 608 1057
1 114 305 243 294 596 464 662 1112 781 523 44 367 199 215 133 116 83 406 682 690 656 663 648 833 1118 909 465 246 198 336 204 8 0 3 60 5 3 334 599 563 362 530 356
0 0 0 1 210 402 187 260 477 289 291 256 248 279 174 180 157 126 106 614 523 554 707 753 864 1117 1082 682 450 349 365 192 22 80 195 133 1 16 200 280 386 93 64 50
0 0 0 0 33 259 210 337 276 259 230 200 128 43 262 331 339 312 295 620 391 539 670 781 795 1229 1260 1037 741 535 453 127 102 246 189 190 18 1 221 190 275 113 99 0
0 0 0 36 0 0 281 99 10 520 226 313 236 297 384 297 452 413 530 596 596 634 780 1067 1194 1407 1253 1265 1053 709 483 234 376 355 207 147 43 0 57 51 156 0 5 0
CIN
-0 -0 -0 -0 -0 -0 -0 -0 -1 -2 -3 -39 -18 -0 -8 -1 -0 -20 -5 -7 -11 -34 -126 -206 -270 -232 -251 -180 -95 -18 -7 -0 -5 -18 -15 -9 -1 -2 -8 -2 -2 -1 -5 -2
-0 -0 -0 -0 -0 -0 -0 -0 -0 -1 -2 -2 -1 -34 -9 -10 -37 -45 -48 -23 -10 -43 -170 -204 -264 -227 -225 -179 -78 -8 -1 -0 -6 -7 -6 -9 -5 -4 -1 -1 -2 -0 -6 -3
-0 -0 -0 -0 -0 -0 -0 -0 -0 -0 -2 -1 -0 -46 -20 -35 -6 -6 -19 -9 -42 -55 -113 -187 -259 -233 -229 -159 -78 -8 -0 -16 -16 -5 -22 -11 -19 -26 -0 -2 -5 -6 -1 -1
-0 -0 -0 -0 -0 -0 -0 -0 -0 -1 -0 -0 -0 -45 -0 -21 -14 -10 -0 -41 -61 -62 -107 -175 -242 -215 -196 -216 -119 -10 -1 -4 -3 -10 -8 -4 -5 -6 -2 -4 -3 -12 -0 -1
-0 -0 -0 -0 -0 -0 -0 -0 -1 -1 -0 -0 -0 -0 -0 -14 -4 -0 -0 -0 -41 -65 -109 -174 -218 -223 -237 -193 -98 -15 -1 -1 -1 -0 -1 -4 -2 -6 -7 -9 -3 -4 -20 -1
-0 -0 -0 -0 -0 -0 -0 -0 -1 -0 -1 -22 -0 -0 -0 -13 -6 -0 -0 -0 -23 -50 -105 -171 -208 -202 -242 -123 -144 -13 -1 -1 -0 -0 -0 -0 -4 -5 -3 -11 -4 -2 -1 -7
-0 -0 -0 -0 -0 -1 -0 -2 -0 -13 -0 -40 -0 -0 -53 -1 -0 -0 -0 -1 -23 -60 -117 -195 -207 -233 -257 -0 -145 -64 -0 -2 -1 -0 -0 -0 -8 -10 -4 -7 -16 -2 -4 -2
-0 -0 -0 -0 -0 -0 -2 -32 -0 -17 -8 -8 -6 -4 -0 -0 -0 -0 -0 -0 -25 -72 -146 -189 -206 -225 -81 -0 -204 -129 -5 -6 -3 -1 -0 -0 -20 -28 -7 -15 -12 -3 -1 -0
-0 -0 -0 -0 -0 -0 -0 -0 -0 -0 -0 -0 -0 -5 -3 -6 -0 -0 -0 -11 -60 -92 -149 -171 -179 -221 -221 -211 -154 -59 -2 -3 -1 -4 -0 -0 -17 -20 -6 -1 -11 -36 -2 -1
-0 -3 -0 -0 -0 -0 -0 -0 -0 -0 -0 -8 -0 -12 -3 -0 -0 -6 -1 -16 -52 -104 -162 -150 -175 -188 -179 -184 -132 -35 -2 -12 -7 -1 -1 -0 -27 -9 -11 -8 -3 -35 -8 -1
-0 -7 -23 -0 -0 -0 -0 -0 -0 -13 -0 -10 -21 -24 -1 -23 -5 -10 -13 -13 -54 -117 -146 -139 -179 -172 -59 -0 -0 -65 -15 -60 -12 -9 -1 -0 -12 -1 -13 -23 -15 -76 -39 -16
-0 -36 -1 -0 -0 -0 -3 -0 -4 -34 -28 -0 -3 -2 -10 -6 -30 -3 -11 -19 -72 -109 -127 -147 -184 -175 -0 -0 -11 -135 -19 -77 -103 -41 -2 -0 -2 -1 -14 -24 -16 -64 -27 -8
-25 -39 -0 -0 -0 -2 -23 -0 -0 -3 -2 -0 -15 -35 -24 -49 -39 -25 -8 -31 -74 -99 -112 -138 -173 -179 -0 -0 -0 -0 -113 -20 -0 -0 -59 -4 -2 -6 -4 -16 -29 -59 -55 -17
-75 -53 -26 -2 -0 -3 -58 -39 -0 -0 -26 -10 -81 -22 -9 -7 -11 -27 -8 -24 -65 -86 -107 -123 -141 -173 -0 -0 -0 -0 -190 -56 -0 -0 -130 -19 -1 -7 -2 -4 -12 -23 -27 -58
-14 -59 -3 -29 -6 -0 -1 -0 -0 -20 -114 -19 -83 -49 -3 -4 -9 -3 -6 -12 -48 -74 -84 -85 -114 -146 -0 -0 -0 -0 -0 -0 -0 -0 -74 -25 -1 -2 -1 -3 -5 -25 -33 -29
-18 -26 -3 -8 -23 -1 -1 -0 -0 -0 -0 -0 -54 -43 -13 -1 -6 -1 -9 -8 -6 -55 -59 -84 -84 -127 -0 -0 -0 -0 -267 -0 -0 -0 -0 -185 -120 -9 -15 -6 -3 -8 -15 -20
-3 -6 -4 -0 -17 -2 -0 -0 -0 -0 -0 -0 -124 -83 -30 -3 -1 -2 -17 -15 -3 -18 -40 -66 -81 -116 -0 -0 -77 -261 -244 -0 -0 -0 -0 -0 -129 -134 -2 -5 -2 -6 -12 -20
-77 -6 -4 -0 -0 -1 -9 -1 -0 -89 -5 -0 -65 -74 -57 -6 -4 -0 -3 -8 -9 -12 -31 -58 -69 -91 -204 -0 -0 -272 -249 -0 -0 -0 -0 -0 -0 -0 -71 -33 -10 -12 -12 -13
-35 -3 -0 -0 -4 -9 -0 -0 -0 -12 -49 -65 -0 -18 -0 -40 -6 -2 -6 -7 -18 -18 -19 -39 -57 -83 -184 -188 -0 -277 -267 -0 -0 -0 -0 -0 -0 -256 -194 -67 -23 -13 -6 -7
-12 -8 -1 -1 -2 -0 -0 -0 -0 -2 -38 -4 -78 -81 -109 -33 -0 -61 -4 -5 -10 -20 -10 -23 -48 -82 -165 -214 -244 -245 -244 -11 -0 -0 -0 -0 -0 -314 -184 -38 -17 -10 -5 -6
-3 -1 -3 -12 -1 -0 -4 -2 -1 -0 -0 -24 -44 -57 -62 -21 -34 -16 -24 -7 -20 -16 -11 -12 -58 -121 -187 -209 -250 -241 -248 -265 -0 -0 -0 -0 -0 -300 -134 -27 -28 -10 -6 -27
-0 -0 -0 -5 -2 -1 -3 -1 -0 -5 -7 -5 -6 -34 -68 -24 -15 -11 -2 -3 -6 -16 -7 -7 -26 -76 -171 -194 -225 -231 -224 -213 -55 -0 -0 -0 -288 -0 -178 -68 -74 -63 -57 -12
-0 -12 -5 -2 -3 -3 -10 -7 -17 -9 -8 -28 -9 -15 -48 -70 -60 -17 -3 -7 -5 -4 -8 -2 -7 -39 -136 -190 -207 -222 -204 -177 -250 -0 -88 -307 -86 -50 -212 -129 -127 -162 -94 -141
-0 -0 -0 -3 -21 -3 -16 -3 -6 -3 -3 -3 -1 -3 -49 -52 -26 -18 -9 -10 -6 -3 -3 -4 -3 -24 -89 -173 -195 -207 -173 -163 -212 -217 -214 -293 -58 -378 -312 -257 -209 -362 -401 -388
-0 -0 -0 -0 -62 -12 -15 -19 -5 -2 -3 -3 -9 -22 -12 -4 -1 -0 -2 -8 -17 -16 -10 -10 -5 -12 -46 -117 -146 -201 -173 -185 -209 -196 -234 -279 -392 -58 -334 -338 -299 -382 -414 -0
-0 -0 -0 -61 -0 -0 -23 -219 -55 -6 -39 -12 -4 -4 -2 -9 -0 -1 -3 -7 -16 -17 -4 -7 -9 -4 -15 -63 -105 -145 -167 -198 -205 -202 -232 -284 -349 -0 -376 -395 -324 -0 -59 -0
Wind_Speed
19 16 22 24 26 26 25 23 23 22 16 9 15 21 17 13 14 18 16 9 7 10 12 13 11 9 7 6 5 5 4 3 2 5 1 0 1 2 4 3 4 7 5 7
22 25 26 26 24 27 27 25 23 20 18 14 14 14 13 15 17 19 17 13 8 12 15 14 12 9 8 6 6 5 5 2 3 4 2 1 0 2 1 1 1 2 4 6
27 24 27 27 24 26 26 24 21 22 17 16 15 14 15 21 18 13 12 5 3 14 13 15 14 11 9 7 6 6 4 2 1 4 4 1 3 3 1 1 1 3 1 3
30 26 28 28 26 25 24 24 24 17 15 12 14 13 13 15 16 11 5 8 10 15 14 15 14 12 9 8 7 6 4 3 4 4 5 5 3 4 2 2 3 1 2 3
30 28 30 28 27 27 22 23 18 13 15 14 15 13 13 14 17 7 1 6 13 15 16 16 15 13 11 8 7 5 5 4 2 1 4 4 4 3 3 2 3 5 3 2
29 24 30 30 25 25 24 21 11 12 12 13 14 15 13 15 3 4 1 5 13 14 15 15 14 13 10 8 8 6 5 3 3 1 2 3 5 6 4 2 4 4 3 1
25 33 30 30 29 22 23 12 11 10 11 11 17 17 15 8 9 1 2 5 12 13 14 14 14 13 10 9 8 6 5 5 4 3 2 4 7 8 6 5 5 4 4 4
23 24 34 27 29 24 21 17 11 11 11 16 21 16 2 5 6 2 2 5 12 13 13 14 14 12 11 10 9 7 6 6 5 4 3 3 8 3 4 5 3 3 4 4
22 29 23 32 23 22 19 23 17 17 15 12 8 10 13 12 7 9 10 9 12 11 13 14 14 12 11 9 8 6 6 6 4 4 2 1 7 5 5 5 4 3 4 4
24 18 28 30 25 22 22 19 17 12 15 13 11 14 4 12 6 10 8 7 12 11 13 13 13 11 9 9 7 6 5 5 4 4 4 2 6 5 6 6 5 4 4 5
26 17 21 24 27 22 19 19 17 14 14 11 9 9 2 11 9 9 8 11 12 13 14 13 13 11 9 10 10 6 6 6 5 4 4 2 5 4 7 6 4 6 3 5
32 11 16 26 26 25 23 23 17 11 14 10 10 3 11 9 8 7 11 13 14 15 14 14 13 12 10 10 10 8 6 6 6 5 5 2 5 5 7 6 5 6 6 5
27 21 13 19 23 23 23 24 19 13 9 14 12 10 10 11 9 6 14 15 14 14 14 13 13 13 11 11 10 10 8 7 7 6 7 2 5 6 6 7 8 5 6 7
22 19 22 16 19 22 27 24 23 19 13 13 14 14 13 12 9 10 14 18 16 15 14 14 13 13 12 12 11 11 9 8 7 7 8 4 5 6 4 5 8 7 7 6
21 26 21 23 23 27 25 24 26 25 19 18 16 16 11 14 12 11 14 16 17 16 17 14 13 12 13 12 10 11 10 9 7 8 9 5 4 4 5 5 5 11 10 6
20 21 21 24 27 26 28 27 26 25 23 22 20 18 13 9 19 13 16 15 15 17 17 16 14 14 14 14 11 10 10 10 8 7 10 8 6 4 5 6 5 6 5 7
17 16 22 18 23 23 25 26 26 21 21 22 20 14 13 11 11 8 16 14 14 16 17 17 16 14 13 13 11 11 10 11 9 8 10 10 7 7 6 6 5 4 5 6
14 22 16 15 17 27 12 21 22 20 18 19 17 16 16 13 8 11 13 17 15 15 16 17 15 13 13 13 13 11 11 11 11 9 11 11 10 9 7 7 6 6 4 5
19 16 11 16 15 13 24 20 23 21 18 18 18 15 14 16 13 9 9 9 14 12 13 15 15 14 14 13 13 12 12 13 12 11 11 12 11 11 8 7 8 6 4 4
15 14 12 14 16 21 14 22 15 14 15 15 16 13 13 14 11 9 12 11 15 14 12 14 18 16 15 13 14 13 13 13 13 12 12 12 11 11 10 7 8 7 5 5
14 15 16 13 8 13 19 14 17 17 7 13 14 15 13 12 8 8 10 10 14 15 13 14 19 18 17 15 14 14 14 14 13 12 12 11 10 9 8 8 7 6 5 6
14 15 12 15 13 11 13 17 21 7 6 6 14 14 12 8 8 8 7 2 12 15 14 15 17 16 17 16 15 15 13 12 13 13 12 12 9 9 8 9 8 7 5 5
8 3 10 8 11 3 6 8 7 8 7 7 14 12 12 12 12 11 8 9 8 11 11 13 14 16 16 17 17 16 12 13 13 11 11 11 12 8 10 9 8 7 5 4
7 13 7 9 17 14 11 8 7 10 8 7 9 8 12 13 13 12 11 11 8 7 10 12 14 18 17 17 17 15 14 14 13 10 10 12 12 8 10 9 8 8 8 7
11 10 14 13 11 11 2 9 6 9 8 10 8 7 8 10 12 11 9 10 8 8 9 12 11 14 18 16 16 16 16 16 12 10 11 12 10 10 10 9 9 9 9 9
9 4 4 5 19 13 13 17 28 13 3 3 9 8 12 8 10 13 11 10 9 9 10 10 8 9 16 17 16 17 17 17 12 11 11 11 11 10 9 9 7 5 2 13
Wind_Direction
225 221 224 224 223 237 244 251 246 252 258 218 236 237 241 255 276 285 291 281 241 183 151 151 158 170 158 189 179 204 193 230 264 281 351 18 327 290 193 211 238 247 231 264
214 221 224 231 226 231 243 252 261 274 283 287 285 263 280 286 270 264 263 263 254 150 144 154 159 171 165 188 203 180 211 186 276 300 20 336 96 260 25 117 309 320 229 228
219 222 222 233 223 229 234 244 254 262 274 271 277 270 263 262 269 265 254 218 227 143 161 159 163 175 176 198 177 198 158 157 238 304 297 346 38 344 310 330 64 342 163 183
227 224 221 225 229 220 232 232 239 254 275 270 282 289 279 294 272 257 236 202 169 154 167 159 166 174 182 191 181 153 155 214 187 12 355 12 3 346 330 18 59 72 155 170
223 218 230 219 220 231 232 239 242 235 246 259 268 268 277 289 281 231 165 221 176 157 165 164 168 171 181 184 160 159 164 177 136 146 35 347 35 2 354 18 60 83 45 34
228 228 227 233 227 220 233 237 248 257 260 249 249 259 269 265 324 100 300 226 137 155 156 157 163 165 176 165 156 156 191 160 217 182 59 16 5 360 21 60 65 74 66 85
216 227 231 233 229 214 224 212 222 224 235 252 248 246 244 280 298 338 318 127 146 144 149 157 165 163 173 171 153 166 176 175 230 107 53 34 65 38 61 59 44 60 56 67
219 217 222 215 230 219 197 208 219 226 223 243 235 242 263 97 90 73 78 73 122 145 148 160 167 164 168 166 156 211 169 146 221 104 87 66 91 90 76 83 71 49 58 77
208 227 207 228 207 218 191 211 214 251 252 284 282 219 216 170 166 197 195 140 131 146 150 161 162 169 166 158 159 200 181 159 187 120 128 70 109 99 103 112 99 66 89 100
235 215 225 207 210 203 220 190 207 231 244 267 279 278 218 138 199 149 126 142 133 147 157 163 164 169 163 154 157 184 165 157 160 157 179 125 114 141 138 156 135 111 70 118
227 244 209 206 203 190 204 221 198 225 225 225 243 256 276 149 128 120 154 137 145 155 166 164 165 161 170 158 161 183 190 162 143 169 100 199 115 116 94 91 112 118 76 128
214 225 239 209 198 196 205 217 191 215 219 255 254 239 96 109 136 134 113 137 153 160 170 167 165 164 176 167 163 172 201 156 167 164 132 165 114 99 101 103 111 109 93 68
200 223 227 223 204 183 212 218 215 209 223 212 235 242 160 158 156 157 143 140 163 165 169 167 167 169 180 171 170 168 191 171 172 168 121 165 116 92 101 121 119 128 104 100
186 220 222 219 196 177 195 215 215 211 216 224 237 249 143 151 171 204 155 149 167 171 168 170 170 171 179 173 174 169 182 166 168 152 135 164 130 135 147 149 143 137 112 109
185 211 218 229 230 192 196 206 221 216 211 223 223 245 202 180 187 218 150 156 167 178 170 173 175 172 176 172 178 171 177 161 161 157 137 159 142 156 150 137 98 132 138 142
187 207 222 211 232 212 204 204 215 224 213 213 230 230 234 201 190 192 153 160 177 178 176 178 177 176 176 172 181 175 174 153 162 159 143 158 174 172 134 103 104 109 115 125
186 191 203 222 217 237 207 201 205 219 223 208 216 222 239 230 210 175 141 160 192 180 181 180 178 178 174 171 184 167 173 151 162 167 151 164 182 157 143 140 132 89 95 93
276 190 195 218 219 227 229 193 212 217 223 221 221 208 214 235 195 203 180 172 173 177 182 178 172 171 166 168 177 164 174 158 169 187 161 168 177 162 173 154 132 108 90 91
261 179 195 212 219 227 214 217 198 208 212 211 216 219 218 208 227 231 208 210 165 171 174 173 164 159 160 170 172 170 181 169 178 190 167 170 182 162 175 165 140 138 140 129
252 175 216 186 220 224 212 207 215 204 223 201 205 203 207 228 222 227 197 190 158 160 175 166 158 156 163 170 170 174 188 174 186 188 176 169 181 165 169 158 147 148 165 160
229 186 211 230 234 206 224 198 185 209 235 201 209 190 205 213 214 237 166 177 161 159 165 162 158 166 167 167 171 182 189 182 186 190 178 165 169 158 158 143 146 151 175 173
245 179 209 220 227 220 221 220 213 145 251 248 193 184 193 212 211 231 159 231 173 159 164 163 159 166 165 167 172 186 193 182 190 194 178 163 149 166 154 146 155 160 188 172
280 47 261 227 212 234 302 242 116 149 230 232 186 184 197 192 204 214 171 160 132 156 163 166 161 161 166 172 177 186 190 185 193 197 170 153 148 169 150 150 157 165 189 195
282 11 307 357 274 229 238 265 187 202 212 164 167 178 187 190 198 206 215 162 172 192 183 167 169 161 169 181 181 180 187 186 194 193 161 151 152 163 152 161 168 184 183 209
306 335 328 305 318 310 272 316 179 169 182 193 193 206 194 195 190 191 177 145 170 203 189 164 183 165 168 179 181 178 187 186 194 182 163 157 161 167 162 176 181 197 182 201
270 317 302 344 334 327 294 8 330 215 120 242 173 196 171 191 171 181 158 158 183 186 169 161 165 173 171 173 182 182 187 187 191 178 169 168 166 172 174 183 189 68 258 168